Tracking 30986 objects as of 9-Jul-2025
HD Live streaming from Space Station
objects crossing your sky now

STARLINK-30585

Track STARLINK-30585 now!
10-day predictions
STARLINK-30585 is classified as:


NORAD ID: 58063
Int'l Code: 2023-158N
Perigee: 564.9 km
Apogee: 567.5 km
Inclination: 43.0 °
Period: 95.8 minutes
Semi major axis: 6937 km
RCS: Unknown
Launch date: October 13, 2023
Source: United States (US)
Launch site: AIR FORCE EASTERN TEST RANGE (AFETR)
Your satellite tracking list
Your tracking list is empty




NASA's NSSDC Master Catalog

Two Line Element Set (TLE):
1 58063U 23158N   25189.70696974 -.00000432  00000-0 -16923-4 0  9990
2 58063  43.0036 275.7578 0001878 264.2840  95.7788 15.02533524 96831
Source of the keplerian elements: AFSPC